Regional Weather Roundup
Issued by NWS Cleveland, OH

Home | Current Version | Previous Version | Text Only | Print | Product List | Glossary Off
Versions: 1 2 3 4 5 6 7 8 9 10 11 12 13 14 15 16 17 18 19 20 21 22 23 24 25 26 27 28 29 30 31 32 33 34 35 36 37 38 39 40 41 42 43 44 45 46 47 48 49 50

000
ASUS41 KCLE 141010
RWRCLE
OHIO REGIONAL WEATHER ROUNDUP
NATIONAL WEATHER SERVICE CLEVELAND, OH
500 AM EST THU DEC 14 2017

NOTE: "FAIR" INDICATES FEW OR NO CLOUDS BELOW 12,000 FEET WITH NO
SIGNIFICANT WEATHER AND/OR OBSTRUCTIONS TO VISIBILITY.

OHZ001>008-015>018-024>027-034-035-043-044-141100-
   NORTHWEST OHIO

CITY           SKY/WX    TMP DP  RH WIND       PRES   REMARKS
DEFIANCE       CLOUDY    20  13  74 NW12      29.85R WCI   8
FINDLAY        CLOUDY    19  13  77 NW12      29.79R WCI   7
TOLEDO EXPRESS CLOUDY    20  16  84 NW10      29.81R WCI   9
TOLEDO EXEC    CLOUDY    20  15  81 NW10      29.81R WCI   9
LIMA           CLOUDY    19  16  88 NW12      29.81R WCI   7
$$

OHZ009>014-019>023-028>033-038-089-141100-
   NORTHEAST OHIO

CITY           SKY/WX    TMP DP  RH WIND       PRES   REMARKS
CLE-HOPKINS    LGT SNOW  25  21  85 N21G31    29.72R BLWGSNOWWCI  11
CLE-LAKEFRONT  LGT SNOW  26  20  77 N24       29.70R WCI  11
CUY CO. ARPT   NOT AVBL
LORAIN-ELYRIA  CLOUDY    23  16  74 N14       29.73R WCI  11
ASHTABULA      LGT SNOW  22  20  92 N14G24    29.66R FOG     WCI   9
AKRON-CANTON   LGT SNOW  24  20  84 NW8       29.65R FOG     WCI  15
WOOSTER        MIX PCPN  24  21  88 NW23G29   29.68R WCI   9
MANSFIELD      CLOUDY    21  17  84 NW20      29.72R WCI   6
YOUNGSTOWN     LGT SNOW  21  18  88 NW8       29.60R FOG     WCI  11
$$

OHZ042-051>053-060>062-070>072-077>081-141100-
  SOUTHWEST OHIO

CITY           SKY/WX    TMP DP  RH WIND       PRES   REMARKS
CINC-COVINGTON CLOUDY    31  22  69 NW13      29.80R WCI  21
CINC-LUNKEN    CLOUDY    32  21  64 NW15      29.84R WCI  22
HAMILTON       CLOUDY    32  22  66 NW15G23   29.83R WCI  22
DAYTON         CLOUDY    23  18  81 NW14      29.81R WCI  11
WRIGHT-PAT AFB CLOUDY    26  17  69 N14G21    29.80R WCI  14
DAYTON GENERAL CLOUDY    27  18  69 N14G21    29.80R WCI  16
WILMINGTON     CLOUDY    29  21  72 NW17G25   29.77R WCI  17
$$

OHZ036-037-039>041-045>050-054>059-063>069-073>076-082>088-141100-
  CENTRAL AND SOUTHEAST OHIO

CITY           SKY/WX    TMP DP  RH WIND       PRES   REMARKS
COLUMBUS       CLOUDY    26  21  81 NW16G25   29.75R WCI  14
OSU AIRPORT    CLOUDY    25  20  81 NW16      29.76R WCI  12
BOLTON FIELD   CLOUDY    26  20  79 NW15G25   29.77R WCI  13
RICKENBACK AFB CLOUDY    27  20  76 NW14G24   29.77R WCI  15
NEWARK         CLOUDY    27  21  78 NW14G21   29.72R WCI  16
MARION         CLOUDY    21  17  84 NW14      29.77R WCI   8
LANCASTER      CLOUDY    28  21  75 NW15      29.75R WCI  16
ZANESVILLE     CLOUDY    29  21  72 NW16G23   29.69R WCI  17
NEW PHILLY     NOT AVBL
$$



USA.gov is the U.S. government's official web portal to all federal, state and local government web resources and services.